Regional Weather Roundup
Issued by NWS

Home | Current Version | Previous Version | Graphics & Text | Print | Product List | Glossary On
Versions: 1 2 3 4 5 6 7 8 9 10 11 12 13 14 15 16 17 18 19 20 21 22 23 24 25 26 27 28 29 30 31 32 33 34 35 36 37 38 39 40 41 42 43 44 45 46 47 48 49 50
000
ASUS45 KCYS 201310
RWRWY

WYOMING REGIONAL WEATHER ROUNDUP
NATIONAL WEATHER SERVICE CHEYENNE WY
600 AM MST SAT DEC 20 2014

NOTE:  "FAIR" INDICATES FEW OR NO CLOUDS BELOW 12,000 FEET
WITH NO SIGNIFICANT WEATHER AND/OR OBSTRUCTIONS TO VISIBILITY.

WYZ001-201400-
YELLOWSTONE NATIONAL PARK

CITY           SKY/WX    TMP DP  RH WIND       PRES   REMARKS
LK YELLOWSTONE   N/A     24  21  88 VRB3      30.00F
W YELLOWSTONE  NOT AVBL

$$
WYZ002>013-054>058-071-098>099-201400-
NORTHERN WYOMING

CITY           SKY/WX    TMP DP  RH WIND       PRES   REMARKS
JACKSON        CLOUDY    30  27  86 S8        30.02S WCI  23
CODY           FAIR      39  21  48 SW9G18    29.91R WCI  33
GREYBULL       FAIR      11   8  88 CALM      29.97S
WORLAND        FAIR      10   7  87 SW5       29.96S WCI   2
SHERIDAN       FAIR      24  17  74 MISG      29.91R
BUFFALO        FAIR      33  19  56 S5        29.91F WCI  29
GILLETTE       CLOUDY    31  25  78 S5        29.91S WCI  26
HULETT           N/A    N/A N/A N/A MISG        N/A
NEWCASTLE      FAIR      28  23  80 CALM      29.94S

$$
WYZ014>020-022>026-101>103-201400-
CENTRAL WYOMING

CITY           SKY/WX    TMP DP  RH WIND       PRES   REMARKS
BIG PINEY      CLOUDY    22  19  89 CALM      30.05F
PINEDALE       FLURRIES  23  23 100 CALM      30.05F
DUBOIS         NOT AVBL
LANDER         FAIR      20  13  74 CALM      29.96R
RIVERTON       FAIR      10   5  80 S6        29.96S WCI   0
CASPER         FAIR      30  23  75 SW14      29.97S WCI  19
DOUGLAS        FAIR      35  24  64 W12       29.95R WCI  27

$$
WYZ021-027>030-104>119-201400-
SOUTHERN WYOMING

CITY           SKY/WX    TMP DP  RH WIND       PRES   REMARKS
EVANSTON       CLOUDY    29  27  92 SW9       30.06F WCI  20
KEMMERER       CLOUDY    28  27  93 SW5       30.05F WCI  23
FORT BRIDGER   CLOUDY    32  28  84 W7        30.09F WCI  25
ROCK SPRINGS   CLOUDY    28  22  78 SW13      30.06S WCI  17
DIXON          LGT SNOW  27  26  94 CALM      30.13F
RAWLINS        CLOUDY    28  22  78 CALM      30.05R
SARATOGA       PTSUNNY   27  21  80 MISG      30.06R
LARAMIE        CLOUDY    28  17  63 SW7       30.00R WCI  21
CHEYENNE       CLOUDY    36  17  46 W20G26    29.95R WCI  25
TORRINGTON     MOCLDY   N/A N/A N/A SW3       29.94S
PINE BLUFFS    CLOUDY    23  18  80 S5        29.99R WCI  17

$$



USA.gov is the U.S. government's official web portal to all federal, state and local government web resources and services.